Startseite
Über Mich
AHP4
Galerie
Sehschlangen
Tourenbuch
Bookmarks
Elektronik
Bewertung
Geschichten
[Tagesmessung] [Jahreswerte] [Information]

Messwerte vom 19.06.2022

Die letzten Messwerte von 23:58:46 Uhr:
KategorieMesswert
Temperatur [°C]14
Luftdruck [mBar]997
Sonneneinstrahlung0
Wind [km/h]0 aus Ost
Niederschlag [l/m²]0
rel.Luftfeucht.96.5%
CO2 [ppm]632

Diagramme
Messwerte vom 19.06.2022
Tagesaggregation
KategorieMinimumMaximumSchnittSumme
Temperatur [°C]143121.4521
Luftdruck [mBar]990998993.3042
Sonneneinstrahlung246141.8167
Wind [km/h]26
rF [%]40.896.568.65
Niederschlag [l/m²]1.2875
CO2 [ppm]401632432.0
Einordnung alsVegetationstag
Sommertag
Heißer Tag

Messungen an benachbarten Tagen: Zur Jahresaggregation 2022
Tabelle aller Messwerte
UhrzeitTemperatur [°C]Luftdruck [mBar]SonneWind [km/h]RichtungRegen [l/m²]rF [%]CO2 [ppm]
00:01:45 21 997 0 4 0 74.6 411
00:04:50 21 998 0 1 NW 0 75.1 405
00:07:47 21 997 0 2 NO 0 75.1 407
00:10:47 21 997 0 3 NO 0 74.7 411
00:13:45 21 997 0 3 NO 0 74.9 418
00:16:46 21 998 0 5 N 0 75 415
00:19:46 21 997 0 4 O 0 74.9 412
00:22:47 21 997 0 3 NO 0 74.4 407
00:25:47 21 998 0 3 N 0 74.6 413
00:28:48 20 997 0 5 NW 0 74.8 413
00:31:47 20 997 0 4 NO 0 74.8 410
00:34:46 20 996 0 5 NO 0 75.1 418
00:37:45 20 996 0 7 N 0 75.1 415
00:40:47 20 997 0 2 NO 0 74.9 410
00:43:51 20 997 0 5 NW 0 74.7 410
00:46:44 20 997 0 2 0 74.5 407
00:49:46 20 998 0 4 SO 0 74.4 407
00:52:46 20 996 0 3 NO 0 74.4 404
00:55:46 20 997 0 2 NO 0 74.3 406
00:58:46 20 997 0 5 N 0 74.6 412
01:01:46 20 996 0 1 NO 0 74.8 415
01:04:47 20 997 0 4 SO 0 75.2 421
01:07:45 20 997 0 3 N 0 75.7 415
01:10:48 20 996 0 2 O 0 75.9 418
01:13:46 20 996 0 4 O 0 75.9 413
01:16:46 20 996 0 2 NO 0 75.9 415
01:19:47 20 996 0 3 NO 0 75.9 415
01:22:45 20 996 0 4 N 0 75.8 415
01:25:46 20 996 0 0 SO 0 76.3 413
01:28:46 20 996 0 1 O 0 76.5 413
01:31:48 20 996 0 2 NO 0 76.7 409
01:34:46 20 996 0 5 N 0 76.9 419
01:37:46 20 996 0 0 NO 0 77.2 412
01:40:46 20 996 0 3 NO 0 77.3 418
01:43:47 20 996 0 1 O 0 77.5 413
01:46:45 20 996 0 0 O 0 77.5 413
01:49:44 19 995 0 0 O 0 77.5 413
01:52:44 19 995 0 0 O 0 77.8 407
01:55:48 19 995 0 0 NO 0 77.4 411
01:58:47 19 995 0 0 NW 0 77.9 410
02:01:47 19 995 0 0 N 0 78.5 419
02:04:48 19 995 0 0 O 0 79.1 411
02:07:46 19 995 0 3 O 0 80 410
02:10:47 19 995 0 0 O 0 80.1 410
02:13:46 19 995 0 0 O 0 79.9 407
02:16:47 19 995 0 0 N 0 79.4 410
02:19:46 19 995 0 0 NO 0 79.4 413
02:22:46 19 995 0 0 NW 0 79.9 419
02:25:46 19 995 0 0 O 0 81.1 416
02:28:45 19 995 0 3 N 0 81.4 410
02:31:46 19 995 0 1 NO 0 81.7 410
02:34:45 19 995 0 3 O 0 81.5 404
02:37:48 19 995 0 3 NO 0 81.9 407
02:40:46 19 995 0 0 O 0 81.5 404
02:43:46 19 995 0 0 N 0 81.3 410
02:46:46 19 995 0 1 O 0 81.7 413
02:49:46 18 995 0 0 O 0 81.9 415
02:52:47 18 995 0 0 NO 0 82 413
02:55:49 18 995 0 0 NO 0 82.6 413
02:58:47 18 995 0 0 0 83.3 412
03:01:47 18 995 0 0 O 0 83.5 415
03:04:49 18 995 0 0 O 0 83 416
03:07:48 18 995 0 1 NO 0 83 416
03:10:47 18 994 0 0 NO 0 83.2 417
03:13:47 18 995 0 0 SO 0 83.7 416
03:16:48 18 994 0 0 O 0 83.7 421
03:19:47 18 995 0 0 O 0 83.8 413
03:22:45 18 994 0 0 O 0 83.9 407
03:25:47 18 994 0 0 O 0 83.8 406
03:28:48 18 994 0 0 NO 0 83.8 409
03:31:46 18 994 0 2 NO 0 84.6 410
03:34:45 18 994 0 2 N 0 85.5 415
03:37:44 18 994 0 1 O 0 86.1 410
03:40:47 18 994 0 2 N 0 86 422
03:43:46 18 993 0 0 O 0 85.6 415
03:46:47 18 993 0 0 O 0 85.4 422
03:49:47 18 994 0 0 N 0 85.2 413
03:52:46 17 994 0 0 N 0 84.3 404
03:55:46 17 994 0 0 N 0 84 406
03:58:45 17 993 0 0 O 0 84 403
04:01:46 17 994 0 0 O 0 84.2 407
04:04:46 17 993 0 0 O 0 85.5 404
04:07:47 17 994 0 0 NO 0 86.5 413
04:10:45 17 994 0 0 O 0 86.7 413
04:13:47 17 993 0 2 NO 0 87.2 410
04:16:47 17 993 0 2 N 0 88.8 412
04:19:46 17 994 0 3 N 0 88.8 410
04:22:45 17 993 3 1 O 0 88.5 413
04:25:45 17 992 5 0 O 0 87.7 413
04:28:45 17 993 7 0 O 0 87.5 413
04:31:49 17 993 10 1 O 0 88.4 410
04:34:46 17 992 14 1 O 0 88.3 410
04:37:48 17 992 18 0 O 0 88.6 410
04:40:46 17 992 23 0 O 0 88.6 419
04:43:48 17 992 28 2 NO 0 88.7 424
04:46:50 17 992 36 2 NO 0 88.5 415
04:49:47 17 992 44 1 NO 0 88.6 412
04:52:46 17 992 51 3 N 0 88.5 407
04:55:47 17 992 58 0 NW 0 88.9 412
04:58:50 17 992 64 2 NW 0 89.3 415
05:01:45 17 992 72 4 N 0 89.6 415
05:04:47 17 992 79 9 NW 0 89.4 419
05:07:48 17 992 89 3 NO 0 88.6 415
05:10:45 17 992 99 7 N 0 88.4 418
05:13:47 17 992 106 5 N 0 88.4 418
05:16:49 17 992 112 4 NW 0 88.4 412
05:19:46 17 991 118 3 O 0 88.5 418
05:22:49 17 992 122 5 N 0 88.8 419
05:25:48 17 991 127 3 N 0 88.8 427
05:28:47 17 991 132 3 NO 0 89.1 421
05:31:51 17 991 137 0 NW 0 88.8 422
05:34:48 17 991 141 1 NO 0 88.6 416
05:37:47 17 991 145 3 N 0 88.7 413
05:40:47 17 991 148 3 N 0 88.3 413
05:43:48 17 991 151 0 N 0 88.2 415
05:46:45 17 991 154 6 0 88.2 417
05:49:46 17 991 156 4 NW 0 87.9 410
05:52:49 17 991 159 2 NO 0 87.8 409
05:55:47 17 991 161 5 N 0 87.8 420
05:58:48 17 991 164 2 O 0 87.8 418
06:01:49 17 991 166 4 N 0 87.8 421
06:04:48 17 991 168 0 N 0 87.9 421
06:07:46 17 991 170 4 N 0 87.9 421
06:10:45 17 991 172 1 N 0 87.9 415
06:13:46 17 991 173 2 O 0 87.8 416
06:16:48 17 991 175 5 NO 0 87.8 419
06:19:46 17 991 176 3 NO 0 87.6 422
06:22:49 17 991 177 2 NO 0 87.4 428
06:25:47 17 991 178 3 NO 0 87.2 424
06:28:49 17 991 179 4 NO 0 87.2 420
06:31:48 17 991 180 4 O 0 87.1 411
06:34:49 17 991 180 3 NW 0 87 431
06:37:46 17 991 181 1 N 0 87 430
06:40:48 17 991 182 5 N 0 86.9 419
06:43:48 17 991 184 6 SO 0 86.8 407
06:46:45 17 991 185 0 O 0 86.7 413
06:49:48 18 991 186 1 NO 0 86.4 413
06:52:49 18 991 187 2 NO 0 86.3 418
06:55:50 18 991 188 0 NW 0 85.8 416
06:58:47 18 991 189 1 NO 0 85.6 418
07:01:48 18 991 189 6 N 0 85.3 410
07:04:49 18 991 190 3 NW 0 85.2 412
07:07:46 18 991 190 1 N 0 84.7 407
07:10:46 18 991 191 2 O 0 84.7 410
07:13:47 19 991 191 1 O 0 83.8 409
07:16:45 19 991 191 1 O 0 83.5 416
07:19:48 19 991 192 2 NW 0 83.5 418
07:22:47 19 991 192 0 O 0 82.9 424
07:25:49 20 991 193 0 SO 0 82.2 409
07:28:47 20 991 193 2 SO 0 81.7 407
07:31:49 20 991 193 0 NO 0 81.4 409
07:34:46 21 991 193 0 SO 0 80.7 415
07:37:47 22 990 193 1 SO 0 77.1 415
07:40:47 22 991 194 0 O 0 76.7 413
07:43:49 23 991 194 0 NW 0 74.3 407
07:46:48 23 991 194 10 NW 0 69.5 404
07:49:49 23 991 194 10 W 0 69.1 404
07:52:47 22 991 194 1 W 0 71.4 406
07:55:47 23 990 193 3 N 0 71.2 413
07:58:49 23 991 193 8 NW 0 70 413
08:01:49 23 991 193 5 N 0 68.6 412
08:04:48 23 991 194 1 O 0 68.7 407
08:07:48 23 990 194 4 0 69.1 407
08:10:47 23 991 194 9 N 0 68.6 409
08:13:48 22 991 194 5 W 0 68.3 407
08:16:47 21 991 194 13 NW 0 69.7 418
08:19:48 21 991 194 8 O 0 72 421
08:22:49 21 991 195 8 NW 0 73.1 422
08:25:47 21 991 195 11 NW 0 74.1 412
08:28:49 21 991 195 3 NO 0 75.1 412
08:31:49 21 991 195 3 SO 0 75.3 413
08:34:49 21 991 195 4 N 0 75.1 413
08:37:47 21 991 195 10 W 0 75.5 415
08:40:46 21 991 195 4 NO 0 75.4 418
08:43:47 21 991 195 4 NW 0 75.2 412
08:46:48 21 991 195 4 NO 0 75.3 416
08:49:49 21 991 195 1 NW 0 75.2 410
08:52:46 21 991 195 4 N 0 75 412
08:55:49 21 991 195 8 NW 0 74.5 413
08:58:47 21 991 196 4 N 0 74.6 418
09:01:49 22 991 196 14 NW 0 74.6 419
09:04:46 22 991 196 4 N 0 73.7 421
09:07:50 22 991 197 3 N 0 74.2 416
09:10:48 22 990 197 3 W 0 74.5 413
09:13:49 22 991 197 10 NW 0 74.3 410
09:16:47 22 991 197 1 S 0 73.6 416
09:19:48 22 991 197 8 W 0 73.8 415
09:22:48 22 991 198 5 NW 0 73 418
09:25:51 22 991 198 3 NW 0 72.6 410
09:28:47 22 991 199 6 N 0 72.6 418
09:31:49 22 991 199 2 W 0 72.7 409
09:34:49 22 991 199 4 W 0 70.7 410
09:37:49 22 991 199 3 NW 0 70.9 406
09:40:49 22 991 199 10 0 71.6 412
09:43:50 22 991 199 4 NW 0 71.3 410
09:46:48 23 991 199 9 NW 0 71.4 418
09:49:50 23 991 200 11 NW 0 70.8 410
09:52:52 23 991 200 13 NW 0 70.8 413
09:55:46 22 991 200 6 N 0 70.6 416
09:58:50 23 991 200 10 NW 0 70.2 415
10:01:48 23 991 200 12 O 0 70.1 412
10:04:51 23 991 200 6 NW 0 69.6 409
10:07:48 23 991 201 3 N 0 69.4 412
10:10:47 23 991 201 3 O 0 69.4 410
10:13:48 23 991 201 5 NW 0 69.3 409
10:16:48 23 991 202 4 W 0 68.7 404
10:19:49 23 991 202 10 SO 0 68.5 407
10:22:47 23 991 203 3 N 0 68.2 407
10:25:48 23 991 204 10 O 0 67.9 415
10:28:48 23 991 204 2 N 0 67.9 415
10:31:50 23 991 204 8 W 0 67.9 428
10:34:48 23 991 204 5 N 0 66.9 421
10:37:49 23 991 204 7 NO 0 66.9 424
10:40:48 23 991 204 10 NW 0 67.3 419
10:43:49 23 991 204 13 NW 0 65.8 415
10:46:48 24 991 203 9 NO 0 65.5 413
10:49:47 24 991 205 1 W 0 65.3 412
10:52:48 24 991 206 4 SW 0 65 413
10:55:50 24 991 205 9 NW 0 62.9 416
10:58:48 24 991 205 8 NW 0 62.3 419
11:01:49 24 991 205 6 NW 0 62.9 418
11:04:49 24 991 206 10 N 0 63 416
11:07:48 24 991 207 13 SO 0 62.8 412
11:10:46 24 991 207 5 NO 0 61.7 404
11:13:50 24 991 207 4 NW 0 61.9 410
11:16:50 25 991 207 5 W 0 62.3 412
11:19:50 25 991 209 6 NW 0 61.8 413
11:22:47 25 991 210 5 N 0 60.8 418
11:25:49 25 991 213 1 NW 0 60.2 416
11:28:48 25 991 215 5 NO 0 59.5 415
11:31:46 25 991 217 7 N 0 58.9 406
11:34:47 26 991 219 3 N 0 59 404
11:37:47 26 991 222 3 NW 0 58.1 403
11:40:46 26 991 222 7 W 0 56.9 409
11:43:49 27 991 220 2 SW 0 56.8 410
11:46:47 27 991 217 5 NW 0 54.3 412
11:49:47 27 991 215 14 W 0 53.2 412
11:52:46 26 991 214 9 W 0 52.4 415
11:55:47 26 991 211 3 NW 0 54.2 415
11:58:45 26 991 211 5 W 0 55.1 418
12:01:48 27 991 212 3 SW 0 54.6 412
12:04:47 27 991 211 1 S 0 52.6 407
12:07:51 28 991 212 5 NW 0 52 404
12:10:50 27 991 212 6 SO 0 51.3 409
12:13:46 27 991 213 4 SW 0 51.4 413
12:16:49 27 993 213 3 NO 0 53 410
12:19:51 28 992 212 7 NW 0 51.7 404
12:22:49 28 992 214 8 SO 0 50.1 407
12:25:51 28 992 214 10 NW 0 49.1 412
12:28:46 27 992 214 5 NW 0 48.4 413
12:31:49 27 992 215 5 S 0 50 422
12:34:49 27 992 215 7 SO 0 50.6 421
12:37:51 27 992 216 9 NW 0 48.8 415
12:40:47 27 992 217 8 W 0 49 404
12:43:50 27 992 217 5 NO 0 50.4 404
12:46:48 27 993 218 9 O 0 51.1 413
12:49:50 27 992 219 10 NW 0 50.7 413
12:52:47 27 993 220 8 N 0 49.9 407
12:55:47 28 992 219 13 NW 0 50.1 406
12:58:47 28 992 224 7 W 0 48.9 410
13:01:50 28 992 223 4 W 0 49.2 412
13:04:50 28 992 225 11 SW 0 49.1 409
13:07:49 28 993 227 2 S 0 50 409
13:10:50 29 992 228 2 SO 0 50 407
13:13:47 30 992 227 4 W 0 46.4 411
13:16:48 30 992 227 4 W 0 45.5 413
13:19:48 31 992 226 4 0 44.6 410
13:22:48 31 994 226 2 O 0 43.8 410
13:25:49 31 992 224 0 N 0 43.8 409
13:28:48 30 993 227 3 SO 0 43.7 415
13:31:46 30 992 224 4 W 0 44.4 413
13:34:45 30 993 225 2 S 0 44.8 409
13:37:47 30 992 225 4 N 0 45.1 409
13:40:46 30 992 225 2 S 0 43.6 406
13:43:47 30 993 227 9 NW 0 44.5 403
13:46:48 31 993 228 3 S 0 43.9 406
13:49:49 31 993 230 6 NW 0 42.1 404
13:52:48 30 993 230 1 SW 0 42.2 404
13:55:46 30 993 232 5 W 0 42.9 406
13:58:45 30 992 234 2 S 0 43.3 404
14:01:47 31 992 234 2 SW 0 43.7 403
14:04:47 31 993 233 4 W 0 42.8 406
14:07:47 31 993 235 4 SO 0 41.3 403
14:10:48 30 991 234 9 NW 0 40.8 407
14:13:49 28 992 234 18 NW 0 43.8 407
14:16:48 27 994 232 10 W 0 47.1 403
14:19:47 27 994 231 6 NO 0 47.8 401
14:22:50 26 992 229 4 SW 0 50.4 406
14:25:49 27 993 226 4 SW 0 50.5 406
14:28:47 27 992 225 1 NO 0 49.6 406
14:31:49 27 992 227 3 NW 0 50 403
14:34:46 26 991 229 1 N 0 49.4 407
14:37:46 26 992 231 3 N 0 49.5 407
14:40:49 26 992 235 6 NW 0 49.9 406
14:43:47 26 991 233 4 N 0 50 403
14:46:49 26 992 231 2 W 0 51.1 406
14:49:49 26 992 226 5 W 0 51.2 406
14:52:49 27 991 226 4 W 0 50.7 406
14:55:50 26 993 230 2 NW 0 50.8 403
14:58:48 26 992 234 3 NO 0 51.1 404
15:01:48 26 992 234 14 NW 0 51.1 404
15:04:50 26 992 235 9 NW 0 50.7 407
15:07:49 26 993 231 3 NW 0 51.3 406
15:10:50 26 993 229 3 NW 0 52.5 407
15:13:48 26 992 236 2 SO 0 52 406
15:16:49 27 992 235 0 NW 0 52.5 404
15:19:48 27 993 222 0 SO 0 52.2 407
15:22:48 28 993 211 2 W 0 51 406
15:25:50 27 991 214 11 NW 0 49.4 409
15:28:50 26 991 217 14 NW 0 49 407
15:31:46 25 991 226 4 O 0 51.3 407
15:34:49 25 991 234 1 N 0 53.8 403
15:37:47 25 991 245 2 N 0 54.8 406
15:40:48 26 991 245 5 N 0 52.6 407
15:43:48 27 991 229 6 N 0 51.6 403
15:46:48 26 991 230 4 NW 0 50.6 407
15:49:48 26 992 238 5 W 0 51.2 407
15:52:48 26 992 236 1 W 0 52.6 406
15:55:48 26 991 242 0 NW 0 53.4 407
15:58:47 27 992 245 1 W 0 52.2 407
16:01:48 28 992 239 4 SW 0 50 406
16:04:50 27 992 244 4 NW 0 47.9 406
16:07:48 28 992 244 3 W 0 48.9 407
16:10:51 28 992 239 0 NW 0 49.3 404
16:13:49 28 992 238 3 NW 0 49 406
16:16:48 28 992 243 1 W 0 49.4 407
16:19:48 28 992 246 0 N 0 49.5 407
16:22:48 28 993 244 2 SO 0 48.9 406
16:25:47 30 993 246 3 N 0 43.4 407
16:28:51 30 993 244 14 NW 0 42.9 406
16:31:48 29 992 246 9 N 0 44.4 403
16:34:48 28 992 246 5 N 0 47 406
16:37:51 28 992 246 0 NW 0 47.6 406
16:40:47 29 993 231 6 W 0 47.4 406
16:43:49 29 992 230 3 W 0 45.5 403
16:46:50 28 993 228 1 SW 0 48.7 406
16:49:48 28 992 239 2 W 0 48.7 406
16:52:50 29 993 236 4 NW 0 48.2 405
16:55:49 28 992 238 1 SO 0 46.8 406
16:58:47 28 993 230 4 NW 0 47.9 403
17:01:49 28 993 227 4 W 0 48.2 406
17:04:48 27 993 225 3 NO 0 48.7 404
17:07:49 27 994 220 3 NW 0 48.9 406
17:10:50 26 994 218 2 NW 0 49.6 406
17:13:48 26 993 230 4 W 0 51.3 406
17:16:48 26 993 240 4 W 0 52.1 410
17:19:48 27 994 235 6 NW 0 51.1 416
17:22:49 27 994 240 9 NW 0 49.9 415
17:25:47 26 994 237 6 W 0 50.4 413
17:28:49 26 994 241 11 NW 0 49.9 412
17:31:48 25 994 241 6 NO 0 49 413
17:34:46 25 994 242 8 W 0 49.5 416
17:37:48 25 994 245 11 NO 0 47.7 413
17:40:47 26 995 245 20 W 0 46.8 412
17:43:48 26 994 245 7 NW 0 47.2 415
17:46:47 26 994 243 10 NO 0 48.5 413
17:49:49 26 994 246 12 NW 0 46.5 409
17:52:49 25 995 245 8 NW 0 46.9 410
17:55:47 24 995 245 18 NW 0 46.9 407
17:58:47 24 995 246 8 NW 0 47.2 410
18:01:46 24 995 245 12 N 0 47.6 410
18:04:49 24 995 239 23 N 0 49.2 410
18:07:49 24 995 244 16 NW 0 49.6 407
18:10:52 24 994 239 6 NO 0 49.8 406
18:13:49 24 995 245 8 N 0 50.2 407
18:16:50 24 995 246 26 NW 0 50 412
18:19:48 24 994 246 6 N 0 49.2 418
18:22:47 24 995 246 3 N 0 49.4 418
18:25:47 24 995 246 5 W 0 49.4 413
18:28:48 23 995 237 3 O 0 50.2 404
18:31:49 23 995 246 5 NW 0 51.5 404
18:34:48 23 995 244 14 NW 0 52.5 404
18:37:49 23 995 246 16 NW 0 51.8 407
18:40:47 23 995 246 10 N 0 52.1 404
18:43:48 24 995 246 9 NO 0 51.3 406
18:46:47 24 995 245 5 NW 0 50.8 403
18:49:50 23 995 245 6 NW 0 50.8 403
18:52:47 22 995 245 6 W 0 51.1 407
18:55:48 21 995 233 7 N 0 55.3 403
18:58:49 21 995 229 14 S 0 55.8 404
19:01:51 21 995 228 3 S 0 57.3 404
19:04:48 20 995 226 7 O 0 58.8 406
19:07:47 20 995 231 10 0 59.6 415
19:10:48 20 995 229 7 NW 0 60.5 418
19:13:49 20 995 229 22 NW 0 61 412
19:16:49 20 995 225 7 SW 0 60.9 409
19:19:51 20 995 222 13 NW 0 61.1 404
19:22:48 20 995 220 17 NO 0 61.1 407
19:25:49 20 995 227 5 NW 0 61.2 409
19:28:49 20 995 230 6 W 0 61.6 412
19:31:50 20 995 223 3 N 0 62 407
19:34:49 20 995 221 4 NW 0 62.1 412
19:37:46 20 995 217 2 N 0 62.5 419
19:40:47 20 995 215 17 W 0 62.5 418
19:43:48 20 995 209 10 NO 0 62.5 419
19:46:47 19 995 207 5 NW 0 63.3 427
19:49:49 19 995 206 10 W 0 63.4 436
19:52:48 19 995 203 6 N 0 63.9 436
19:55:48 19 995 202 3 NW 0 64.1 447
19:58:47 19 995 205 12 W 0 64.6 460
20:01:47 19 995 210 10 N 0 64.7 474
20:04:51 19 995 213 7 NW 0 65 477
20:07:49 19 995 207 4 NO 0 65.2 480
20:10:49 19 995 204 8 N 0 65.3 489
20:13:48 19 995 201 4 NW 0 65.1 506
20:16:49 19 995 196 4 NW 0 65.5 507
20:19:48 19 995 191 10 NW 0 65.5 517
20:22:49 19 996 188 7 N 0 65.8 527
20:25:48 19 995 181 5 NW 0 66.1 544
20:28:47 18 995 163 2 O 0 66.4 553
20:31:48 18 996 152 3 O 0 66.8 553
20:34:47 18 995 171 9 N 0 67.2 554
20:37:51 18 995 178 8 NW 0 66.8 564
20:40:49 18 995 178 2 NO 0 66.8 570
20:43:49 18 995 168 4 NO 0 66.6 579
20:46:46 18 995 164 4 0 66.5 597
20:49:50 18 994 162 5 NO 0 66.7 603
20:52:47 18 995 152 3 N 0 66.7 614
20:55:47 18 995 91 1 NO 0 66.8 623
20:58:48 18 995 80 6 NW 0 67.3 562
21:01:48 18 995 75 1 W 0 67.4 469
21:04:48 18 995 105 2 W 0 68 442
21:07:49 18 995 93 2 NW 0 68.4 445
21:10:48 18 995 89 3 NO 0 68.8 442
21:13:48 18 995 79 5 NW 0 69.4 448
21:16:47 18 995 81 6 NW 0 69.9 448
21:19:49 18 995 83 2 NW 0 70.1 447
21:22:45 18 995 84 1 NO 0 70.1 445
21:25:47 17 995 74 5 NW 0 70.7 451
21:28:47 17 996 63 3 N 0 70.6 451
21:31:47 17 995 58 2 W 0 71.1 457
21:34:48 17 996 54 8 N 0 71.8 453
21:37:48 17 995 49 8 N 0 72.4 462
21:40:45 17 996 33 3 O 0 72.7 471
21:43:47 17 996 28 14 N 0 72.9 466
21:46:47 17 996 32 6 NO 0 73.1 466
21:49:47 17 995 30 7 NO 0 73.4 465
21:52:47 17 996 24 14 NW 0 73.4 468
21:55:46 17 996 19 8 N 0 73.8 469
21:58:47 17 996 14 7 NW 0 74.4 471
22:01:48 17 996 12 6 N 0 74.9 471
22:04:47 17 996 10 10 N 0 75.4 472
22:07:48 16 996 10 4 NW 0 78.1 471
22:10:46 16 996 6 5 N 0 78.5 485
22:13:47 16 996 4 8 NW 0 79.2 524
22:16:48 16 995 0 4 NO 0 80.6 553
22:19:49 16 995 0 3 NW 0 81.3 563
22:22:45 16 996 0 4 0 81.6 559
22:25:48 16 996 0 6 NW 0 82.1 553
22:28:48 16 996 0 6 NW 0 82.7 556
22:31:49 16 996 0 6 N 0 83.3 557
22:34:51 16 996 0 8 SW 0 83.7 559
22:37:47 16 996 0 6 NO 0 84.1 556
22:40:48 15 996 0 10 W 0 84.7 553
22:43:48 15 996 0 8 NO 0 84.8 544
22:46:54 15 996 0 7 NW 0 85.6 548
22:49:49 15 996 0 6 NW 0 85.8 547
22:52:45 15 996 0 5 W 0 86.4 553
22:55:45 15 997 0 0 0 86.7 553
22:58:47 15 998 0 0 NW 0 86.7 560
23:01:50 15 998 0 0 SO 0 86 560
23:04:49 15 998 0 0 NW 0 86 568
23:07:47 15 998 0 0 NW 0 86.6 568
23:10:49 15 998 0 3 NW 0 87.6 567
23:13:49 15 997 0 6 NW 0.2575 88.6 575
23:16:48 15 995 0 9 NW 0.2575 92.2 586
23:19:48 14 995 0 5 NO 0 93.1 588
23:22:45 14 995 0 1 NO 0 94.2 579
23:25:47 14 996 0 14 W 0 93.8 583
23:28:46 14 998 0 2 NW 0.2575 94.3 594
23:31:47 14 997 0 2 O 0 94.7 612
23:34:47 14 995 0 1 S 0 94.9 614
23:37:45 14 995 0 1 N 0 96.5 614
23:40:47 14 995 0 0 O 0 96.4 609
23:43:49 14 996 0 0 SO 0 95.6 608
23:46:46 14 995 0 1 N 0 95.5 615
23:49:46 14 996 0 1 SO 0.515 95.9 614
23:52:49 14 996 0 0 SO 0 96.2 621
23:55:48 14 996 0 0 W 0 96.5 626
23:58:46 14 997 0 0 O 0 96.5 632

Letzte Änderung : 04-Jan-2022
Copyright Jens Köhler, Wolfsburg, Obere Dorfstraße 10d